Regional Weather Roundup
Issued by NWS

Home | Current Version | Previous Version | Text Only | Print | Product List | Glossary Off
Versions: 1 2 3 4 5 6 7 8 9 10 11 12 13 14 15 16 17 18 19 20 21 22 23 24 25 26 27 28 29 30 31 32 33 34 35 36 37 38 39 40 41 42 43 44 45 46 47 48 49 50

000
ASUS43 KOAX 300602
RWRNE

WEATHER ROUNDUP FOR NEBRASKA
NATIONAL WEATHER SERVICE OMAHA NE
100 AM CDT TUE SEP 30 2014

NOTES: SATELLITE DATA IS BEING USED TO AUGMENT CLOUD COVER ABOVE
       12000 FEET.
       "FAIR" INDICATES FEW OR NO CLOUDS BELOW 12,000 FEET WITH NO
       SIGNIFICANT WEATHER AND/OR OBSTRUCTIONS TO VISIBILITY.

  * THESE STATIONS DO NOT REPORT WEATHER SUCH AS RAIN...SNOW OR FOG.

NEZ001>004-019>022-054>056-300700-
NEBRASKA PANHANDLE

CITY           SKY/WX    TMP DP  RH WIND       PRES   REMARKS
SCOTTSBLUFF    HVY RAIN  52  51  97 W25G33    29.64F FOG
6HR MIN TEMP:  52; 6HR MAX TEMP:  64; 6HR PCP:  1.30;

ALLIANCE       LGT RAIN  57  55  93 SE14      29.62F
6HR MIN TEMP:  54; 6HR MAX TEMP:  59;

CHADRON        LGT RAIN  56  55  97 NE16      29.63F
6HR MIN TEMP:  52; 6HR MAX TEMP:  56; 6HR PCP:  1.61;

KIMBALL        LGT RAIN  48  46  92 W26G37    29.74R
SIDNEY         LGT RAIN  52  49  89 W22G30    29.70S
6HR MIN TEMP:  52; 6HR MAX TEMP:  59; 6HR PCP:  1.34;

$$

NEZ057>060-069>072-079>082-300700-
SOUTHWEST NEBRASKA

CITY           SKY/WX    TMP DP  RH WIND       PRES   REMARKS
NORTH PLATTE   LGT RAIN  59  56  89 SE13G21   29.76F
6HR MIN TEMP:  59; 6HR MAX TEMP:  75; 6HR PCP:  0.27;

IMPERIAL       MOCLDY    58  54  86 S13       29.77R
6HR MIN TEMP:  58; 6HR MAX TEMP:  78; 6HR PCP:  0.33;

LEXINGTON      LGT RAIN  62  58  84 SW5       29.86R
MCCOOK         CLOUDY    60  58  92 S9        29.81S
6HR MIN TEMP:  60; 6HR MAX TEMP:  78; 6HR PCP:  0.13;

OGALLALA       CLOUDY    59  57  92 SE15G22   29.73R
$$

NEZ005>010-023>029-035>040-094-300700-
NORTH CENTRAL NEBRASKA

CITY           SKY/WX    TMP DP  RH WIND       PRES   REMARKS
VALENTINE      CLOUDY    68  51  54 SE20G29   29.76F
6HR MIN TEMP:  64; 6HR MAX TEMP:  69;

AINSWORTH      CLOUDY    66  51  58 SE18      29.80F
BROKEN BOW     CLOUDY    69  54  58 SE15G24   29.83F
6HR MIN TEMP:  68; 6HR MAX TEMP:  75;

O`NEILL        CLOUDY    66  60  81 SE15      29.88F
ORD            CLOUDY    68  54  60 SE12      29.85F
6HR MIN TEMP:  67; 6HR MAX TEMP:  76;

THEDFORD       RAIN      61  58  88 S22G36    29.83R
$$

NEZ041-046>049-061>064-073>077-083>087-300700-
SOUTH CENTRAL NEBRASKA

CITY           SKY/WX    TMP DP  RH WIND       PRES   REMARKS
GRAND ISLAND   CLOUDY    68  56  65 SE13      29.90F
6HR MIN TEMP:  67; 6HR MAX TEMP:  76;

AURORA         MOCLDY    66  56  70 SE10      29.91F
HASTINGS       CLOUDY    67  54  63 SE12      29.90F
6HR MIN TEMP:  66; 6HR MAX TEMP:  77;

HEBRON         MOCLDY    67  57  68 SE9       29.92F
HOLDREGE       CLOUDY    69  54  58 SE16G23   29.85F
KEARNEY *      CLOUDY    68  54  60 SE17      29.88F
YORK           MOCLDY    66  57  72 SE9       29.92F
$$

NEZ011>018-030>034-042>045-300700-
NORTHEAST NEBRASKA

CITY           SKY/WX    TMP DP  RH WIND       PRES   REMARKS
NORFOLK        PTCLDY    63  61  93 E12       29.93F
6HR MIN TEMP:  63; 6HR MAX TEMP:  75;

ALBION         MOCLDY    63  55  74 SE8       29.91F
BLAIR          PTCLDY    65  61  86 NE8       29.96S
COLUMBUS *     MOCLDY    63  55  77 E6        29.94S
FREMONT        PTCLDY    67  60  78 E7        29.96S
TEKAMAH        CLEAR     63  60  90 E5        29.97S
6HR MIN TEMP:  63; 6HR MAX TEMP:  79;

WAYNE          CLOUDY    61  59  94 E8        29.96F
$$

NEZ050>053-065>068-078-088>093-300700-
SOUTHEAST NEBRASKA

CITY           SKY/WX    TMP DP  RH WIND       PRES   REMARKS
LINCOLN        CLOUDY    65  56  72 S5        29.94F
6HR MIN TEMP:  65; 6HR MAX TEMP:  78;

OMAHA EPPLEY   PTCLDY    67  60  78 E6        29.96F
6HR MIN TEMP:  64; 6HR MAX TEMP:  78;

BEATRICE       MOCLDY    68  58  70 SE7       29.95S
FALLS CITY     PTCLDY    64  57  78 SE5       29.95S
6HR MIN TEMP:  64; 6HR MAX TEMP:  78;

NEBRASKA CITY  MOCLDY    63  54  73 S3        29.96F
PLATTSMOUTH    MOCLDY    65  53  63 SE6       29.96F
$$

NEZ044-045-051>053-067-300700-
OMAHA AREA

CITY           SKY/WX    TMP DP  RH WIND       PRES   REMARKS
OMAHA EPPLEY   PTCLDY    67  60  78 E6        29.96F
6HR MIN TEMP:  64; 6HR MAX TEMP:  78;

BLAIR          PTCLDY    65  61  86 NE8       29.96S
FREMONT        PTCLDY    67  60  78 E7        29.96S
MILLARD        PTCLDY    62  58  87 CALM      29.95F
OFFUTT AFB     CLEAR     60  60  99 NE6       29.95S
PLATTSMOUTH    MOCLDY    65  53  63 SE6       29.96F
WAHOO          FAIR      60  55  82 SE3       29.94F
$$



USA.gov is the U.S. government's official web portal to all federal, state and local government web resources and services.